EST,Max TemperatureF,Mean TemperatureF,Min TemperatureF,Max Dew PointF,MeanDew PointF,Min DewpointF,Max Humidity, Mean Humidity, Min Humidity, Max Sea Level PressureIn, Mean Sea Level PressureIn, Min Sea Level PressureIn, Max VisibilityMiles, Mean VisibilityMiles, Min VisibilityMiles, Max Wind SpeedMPH, Mean Wind SpeedMPH, Max Gust SpeedMPH,PrecipitationIn, CloudCover, Events, WindDirDegrees
2014-1-1,21,10,-2,8,3,-6,95,71,47,30.44,30.37,30.22,10,10,3,15,5,18,T,5,Snow,258
2014-1-2,4,0,-4,-2,-5,-10,87,80,72,30.42,30.19,29.96,6,2,0,14,9,18,0.05,8,Fog-Snow,43
2014-1-3,0,-12,-25,-9,-12,-29,91,75,59,30.51,30.14,29.93,10,4,1,15,6,18,0.01,6,Snow,66
2014-1-4,18,-3,-25,4,-11,-29,86,68,49,30.53,30.39,30.26,10,9,5,15,4,22,0.00,2,,218
2014-1-5,30,15,-1,29,15,-4,100,77,53,30.33,30.11,29.77,10,7,2,7,1,9,0.09,4,Rain,340
2014-1-6,49,33,16,48,28,-7,100,75,49,29.71,29.47,29.26,10,5,0,25,7,44,0.52,8,Fog-Rain,257
2014-1-7,16,10,3,-6,-10,-14,62,49,36,30.24,30.00,29.69,10,10,10,23,12,32,0.00,2,,235
2014-1-8,18,11,3,2,-3,-8,69,58,47,30.49,30.42,30.26,10,10,10,15,9,20,0.00,2,,195
2014-1-9,26,14,1,11,4,-2,87,67,46,30.65,30.59,30.46,10,10,10,10,4,15,0.00,3,,167
2014-1-10,30,16,2,27,18,-1,92,85,78,30.57,30.41,30.20,10,5,0,8,1,9,0.03,8,Fog-Snow,190
2014-1-11,52,41,29,52,40,26,100,93,85,30.19,29.59,29.21,10,2,0,15,3,23,0.81,8,Fog-Rain,214
2014-1-12,45,40,35,35,28,21,70,59,48,29.99,29.67,29.35,10,10,10,18,9,32,0.00,7,,238
2014-1-13,45,35,24,34,27,22,88,71,53,30.07,29.96,29.81,10,10,10,14,6,20,0.00,1,,213
2014-1-14,44,38,32,41,37,32,100,83,65,29.83,29.74,29.68,10,2,0,7,1,9,0.33,8,Fog-Rain,198
2014-1-15,45,35,24,36,31,21,100,83,65,29.97,29.91,29.83,10,6,1,12,3,15,0.04,5,Rain,257
2014-1-16,35,29,23,32,27,23,92,84,75,29.99,29.94,29.90,10,5,0,14,3,20,0.02,8,Fog-Snow,359
2014-1-17,35,27,18,27,22,17,100,85,70,29.96,29.93,29.89,10,5,0,14,3,18,0.00,5,Fog,197
2014-1-18,38,26,14,32,24,10,92,78,64,29.91,29.77,29.68,10,7,2,10,4,12,0.01,5,Snow,298
2014-1-19,30,26,22,25,20,15,88,73,58,29.77,29.64,29.51,10,6,1,20,10,29,T,8,Snow,187
2014-1-20,34,19,4,27,19,-4,92,81,69,30.01,29.61,29.50,10,6,1,16,7,18,T,7,Snow,136
2014-1-21,7,3,-1,-6,-8,-10,72,63,54,30.17,30.11,30.03,10,10,10,17,8,22,0.00,1,,35
2014-1-22,5,-2,-10,-8,-11,-14,83,70,56,30.07,30.02,29.91,10,10,10,13,4,16,0.00,1,,42
2014-1-23,13,2,-10,-2,-7,-15,87,69,50,30.27,30.14,30.04,10,9,2,13,3,17,0.00,5,,270
2014-1-24,16,3,-11,0,-7,-15,83,62,40,30.36,30.20,29.92,10,10,10,16,5,23,0.00,1,,190
2014-1-25,20,17,13,16,12,0,84,67,49,29.87,29.50,29.34,10,4,0,21,9,28,0.02,7,Fog-Snow,193
2014-1-26,18,11,4,10,-3,-15,92,67,41,29.82,29.74,29.44,10,9,2,21,7,32,T,4,Snow,236
2014-1-27,32,20,7,25,10,-5,80,55,29,30.07,29.70,29.45,10,8,2,23,8,38,T,6,Snow,242
2014-1-28,15,4,-8,-2,-7,-12,82,60,38,30.33,30.25,30.09,10,10,10,15,6,20,0.00,0,,223
2014-1-29,18,1,-17,-2,-10,-22,79,55,30,30.27,30.16,30.02,10,10,10,17,6,24,0.00,0,,208
2014-1-30,24,11,-3,4,0,-7,83,60,36,30.45,30.30,30.08,10,10,10,16,5,20,0.00,0,,191
2014-1-31,33,25,16,16,10,5,80,62,43,30.23,30.10,30.02,10,10,10,15,5,20,0.00,3,,198